When you browse on this site, cookies collect data to enhance your experience and personalize the content and advertising you see.
Visit our Privacy Policy to learn more. By continuing to use the site, you agree to this use of cookies and data.
  • In United Kingdom
  • List of Countries
  • For 7 days
  • Water Temperature
  • Satellite Maps
  • Weather Map
  • Weather Widgets
  • user-avatar
    Login

    Hourly Weather Goycay

    Today, 21 May, Tuesday

    Time Temperature Precipitation Wind Pressure Humidity
    00:00 +21°C° 0.1 mm 1 mps 752 mmHg 66%
    01:00 +20°C° 0 mm 1 mps 752 mmHg 66%
    02:00 +20°C° 0 mm 1 mps 752 mmHg 65%
    03:00 +20°C° 0 mm 1 mps 752 mmHg 65%
    04:00 +20°C° 0 mm 1 mps 752 mmHg 63%
    05:00 +20°C° 0 mm 1 mps 753 mmHg 62%
    06:00 +21°C° 0 mm 1 mps 753 mmHg 60%
    07:00 +21°C° 0 mm 1 mps 753 mmHg 58%
    08:00 +22°C° 0 mm 1 mps 754 mmHg 56%
    09:00 +21°C° 0 mm 2 mps 754 mmHg 53%
    10:00 +23°C° 0.1 mm 2 mps 754 mmHg 50%
    11:00 +24°C° 0.1 mm 2 mps 754 mmHg 47%
    12:00 +25°C° 0.1 mm 3 mps 754 mmHg 44%
    13:00 +26°C° 0 mm 2 mps 754 mmHg 42%
    14:00 +27°C° 0 mm 2 mps 754 mmHg 40%
    15:00 +27°C° 0 mm 2 mps 754 mmHg 39%
    16:00 +27°C° 0 mm 2 mps 754 mmHg 41%
    17:00 +26°C° 0 mm 2 mps 754 mmHg 44%
    18:00 +26°C° 0 mm 2 mps 754 mmHg 46%
    19:00 +24°C° 0 mm 2 mps 754 mmHg 49%
    20:00 +21°C° 0 mm 2 mps 755 mmHg 51%
    21:00 +19°C° 0 mm 2 mps 755 mmHg 53%
    22:00 +19°C° 0 mm 1 mps 755 mmHg 55%
    23:00 +19°C° 0 mm 1 mps 755 mmHg 56%

    Tomorrow, 22 May, Wednesday

    Time Temperature Precipitation Wind Pressure Humidity
    00:00 +18°C° 0 mm 1 mps 755 mmHg 58%
    01:00 +18°C° 0 mm 1 mps 755 mmHg 58%
    02:00 +16°C° 0 mm 1 mps 755 mmHg 57%
    03:00 +16°C° 0 mm 2 mps 754 mmHg 57%
    04:00 +18°C° 0 mm 1 mps 754 mmHg 55%
    05:00 +18°C° 0 mm 1 mps 754 mmHg 54%
    06:00 +19°C° 0 mm 1 mps 754 mmHg 52%
    07:00 +20°C° 0 mm 1 mps 754 mmHg 49%
    08:00 +22°C° 0 mm 1 mps 754 mmHg 45%
    09:00 +23°C° 0 mm 1 mps 753 mmHg 42%
    10:00 +24°C° 0 mm 1 mps 753 mmHg 39%
    11:00 +25°C° 0 mm 1 mps 752 mmHg 37%
    12:00 +26°C° 0 mm 1 mps 751 mmHg 35%
    13:00 +27°C° 0 mm 1 mps 751 mmHg 34%
    14:00 +27°C° 0 mm 1 mps 750 mmHg 33%
    15:00 +28°C° 0 mm 1 mps 750 mmHg 33%
    16:00 +27°C° 0 mm 1 mps 750 mmHg 35%
    17:00 +27°C° 0 mm 1 mps 750 mmHg 38%
    18:00 +26°C° 0 mm 1 mps 749 mmHg 41%
    19:00 +25°C° 0 mm 1 mps 750 mmHg 43%
    20:00 +23°C° 0 mm 2 mps 750 mmHg 44%
    21:00 +21°C° 0 mm 2 mps 750 mmHg 46%
    22:00 +21°C° 0 mm 2 mps 750 mmHg 47%
    23:00 +21°C° 0 mm 1 mps 750 mmHg 48%

    Day after tomorrow, 23 May, Thursday

    Time Temperature Precipitation Wind Pressure Humidity
    00:00 +21°C° 0 mm 1 mps 749 mmHg 48%
    01:00 +19°C° 0 mm 2 mps 749 mmHg 48%
    02:00 +19°C° 0 mm 2 mps 749 mmHg 47%
    03:00 +18°C° 0 mm 3 mps 749 mmHg 46%
    04:00 +19°C° 0 mm 3 mps 749 mmHg 45%
    05:00 +19°C° 0 mm 4 mps 748 mmHg 44%
    06:00 +20°C° 0 mm 4 mps 748 mmHg 42%
    07:00 +22°C° 0 mm 5 mps 748 mmHg 37%
    08:00 +24°C° 0 mm 6 mps 748 mmHg 32%
    09:00 +28°C° 0 mm 7 mps 748 mmHg 27%
    10:00 +29°C° 0 mm 7 mps 748 mmHg 25%
    11:00 +30°C° 0 mm 7 mps 748 mmHg 23%
    12:00 +32°C° 0 mm 7 mps 748 mmHg 22%
    13:00 +32°C° 0 mm 7 mps 748 mmHg 21%
    14:00 +33°C° 0 mm 7 mps 747 mmHg 21%
    15:00 +33°C° 0 mm 7 mps 747 mmHg 21%
    16:00 +32°C° 0.1 mm 5 mps 747 mmHg 25%
    17:00 +29°C° 0.1 mm 4 mps 748 mmHg 29%
    18:00 +28°C° 0.1 mm 3 mps 748 mmHg 33%
    19:00 +26°C° 0.5 mm 3 mps 749 mmHg 42%
    20:00 +22°C° 0.5 mm 3 mps 749 mmHg 51%
    21:00 +20°C° 0.5 mm 3 mps 750 mmHg 59%
    22:00 +20°C° 0 mm 2 mps 750 mmHg 64%
    23:00 +19°C° 0 mm 2 mps 750 mmHg 69%

    24 May, Friday

    Time Temperature Precipitation Wind Pressure Humidity
    00:00 +19°C° 0 mm 2 mps 750 mmHg 74%
    01:00 +18°C° 0 mm 2 mps 750 mmHg 72%
    02:00 +18°C° 0 mm 2 mps 750 mmHg 70%
    03:00 +17°C° 0 mm 2 mps 750 mmHg 67%
    04:00 +19°C° 0 mm 1 mps 751 mmHg 64%
    05:00 +20°C° 0 mm 1 mps 751 mmHg 60%
    06:00 +21°C° 0 mm 1 mps 751 mmHg 57%
    07:00 +22°C° 0 mm 1 mps 751 mmHg 52%
    08:00 +24°C° 0 mm 2 mps 751 mmHg 47%
    09:00 +25°C° 0 mm 2 mps 751 mmHg 42%
    10:00 +26°C° 0 mm 2 mps 751 mmHg 37%
    11:00 +28°C° 0 mm 2 mps 750 mmHg 33%
    12:00 +29°C° 0 mm 2 mps 750 mmHg 28%
    13:00 +30°C° 0 mm 2 mps 750 mmHg 26%
    14:00 +30°C° 0 mm 2 mps 750 mmHg 25%
    15:00 +31°C° 0 mm 2 mps 750 mmHg 23%
    16:00 +30°C° 0 mm 2 mps 750 mmHg 26%
    17:00 +29°C° 0 mm 1 mps 750 mmHg 28%
    18:00 +29°C° 0 mm 1 mps 750 mmHg 31%
    19:00 +27°C° 0 mm 2 mps 750 mmHg 35%
    20:00 +25°C° 0 mm 3 mps 751 mmHg 39%
    21:00 +21°C° 0 mm 4 mps 751 mmHg 43%
    22:00 +21°C° 0 mm 4 mps 751 mmHg 44%
    23:00 +20°C° 0 mm 3 mps 751 mmHg 45%

    25 May, Saturday

    Time Temperature Precipitation Wind Pressure Humidity
    00:00 +20°C° 0 mm 3 mps 751 mmHg 46%
    01:00 +20°C° 0 mm 2 mps 751 mmHg 45%
    02:00 +20°C° 0 mm 2 mps 751 mmHg 43%
    03:00 +21°C° 0 mm 1 mps 751 mmHg 41%
    04:00 +21°C° 0 mm 1 mps 751 mmHg 42%
    05:00 +22°C° 0 mm 1 mps 750 mmHg 44%
    06:00 +22°C° 0 mm 1 mps 750 mmHg 45%
    07:00 +24°C° 0 mm 1 mps 750 mmHg 43%
    08:00 +25°C° 0 mm 1 mps 750 mmHg 41%
    09:00 +27°C° 0 mm 2 mps 750 mmHg 39%
    10:00 +28°C° 0 mm 2 mps 749 mmHg 35%
    11:00 +30°C° 0 mm 2 mps 749 mmHg 32%
    12:00 +31°C° 0 mm 2 mps 748 mmHg 29%
    13:00 +32°C° 0 mm 2 mps 748 mmHg 27%
    14:00 +34°C° 0 mm 2 mps 747 mmHg 26%
    15:00 +35°C° 0 mm 3 mps 747 mmHg 25%
    16:00 +34°C° 0 mm 2 mps 747 mmHg 27%
    17:00 +34°C° 0 mm 2 mps 747 mmHg 30%
    18:00 +32°C° 0 mm 1 mps 747 mmHg 33%
    19:00 +30°C° 0 mm 2 mps 747 mmHg 35%
    20:00 +28°C° 0 mm 2 mps 747 mmHg 37%
    21:00 +27°C° 0 mm 2 mps 747 mmHg 39%
    22:00 +26°C° 0 mm 2 mps 747 mmHg 41%
    23:00 +25°C° 0 mm 2 mps 747 mmHg 42%

    26 May, Sunday

    Time Temperature Precipitation Wind Pressure Humidity
    00:00 +24°C° 0 mm 2 mps 747 mmHg 44%
    01:00 +24°C° 0 mm 2 mps 747 mmHg 43%
    02:00 +24°C° 0 mm 2 mps 746 mmHg 41%
    03:00 +24°C° 0 mm 1 mps 746 mmHg 40%
    04:00 +25°C° 0 mm 2 mps 746 mmHg 41%
    05:00 +25°C° 0 mm 2 mps 747 mmHg 42%
    06:00 +25°C° 0 mm 3 mps 747 mmHg 43%
    07:00 +28°C° 0 mm 3 mps 747 mmHg 38%
    08:00 +30°C° 0 mm 4 mps 746 mmHg 33%
    09:00 +33°C° 0 mm 4 mps 746 mmHg 28%
    10:00 +35°C° 0 mm 5 mps 746 mmHg 26%
    11:00 +36°C° 0 mm 5 mps 746 mmHg 23%
    12:00 +39°C° 0 mm 5 mps 746 mmHg 20%
    13:00 +39°C° 0 mm 5 mps 746 mmHg 19%
    14:00 +39°C° 0 mm 5 mps 746 mmHg 18%
    15:00 +39°C° 0 mm 5 mps 746 mmHg 17%
    16:00 +36°C° 0.6 mm 4 mps 746 mmHg 25%
    17:00 +34°C° 0.6 mm 3 mps 747 mmHg 32%
    18:00 +30°C° 0.6 mm 2 mps 747 mmHg 39%
    19:00 +29°C° 0.2 mm 2 mps 748 mmHg 39%
    20:00 +28°C° 0.2 mm 2 mps 749 mmHg 38%
    21:00 +26°C° 0.2 mm 2 mps 749 mmHg 38%
    22:00 +26°C° 0.1 mm 2 mps 749 mmHg 42%
    23:00 +25°C° 0.1 mm 1 mps 750 mmHg 46%
    Show more